Weather History for KTVR - December, 2012

Change the Weather History Date:

Thursday, December 13, 2012

  Actual Average Record
Temperature  
Mean Temperature 43 °F 48 °F  
Max Temperature 63 °F 59 °F 79 °F (1996)
Min Temperature 23 °F 38 °F 7 °F (1962)
Degree Days  
Heating Degree Days 22 17  
Month to date heating degree days 106 205  
Since 1 July heating degree days 664 607  
Cooling Degree Days 0 0  
Month to date cooling degree days 10 0  
Year to date cooling degree days 2407 2225  
Moisture  
Dew Point 28 °F    
Average Humidity 63    
Maximum Humidity 100    
Minimum Humidity 25    
Precipitation  
Precipitation 0.00 in 0.19 in 3.00 in (1956)
Month to date precipitation 3.62 2.58  
Year to date precipitation 49.98 51.71  
Sea Level Pressure  
Sea Level Pressure 30.36 in    
Wind  
Wind Speed 2 mph (North)    
Max Wind Speed 8 mph    
Max Gust Speed 9 mph    
Visibility 10 miles    
Events      
T = Trace of Precipitation, MM = Missing Value Source: NWS Daily Summary

Daily Weather History Graph

Daily Weather History Graph

Search for Another Location

Airport or City:

Trip Planner

Search our weather history database for the weather conditions in past years. The results will help you decide how hot, cold, wet, or windy it might be!

Date:

Astronomy

Dec. 13, 2012 Rise Set
Actual Time 6:57 AM CST 5:00 PM CST
Civil Twilight 6:29 AM CST 5:27 PM CST
Nautical Twilight 5:59 AM CST 5:57 PM CST
Astronomical Twilight 5:29 AM CST 6:27 PM CST
Moon 7:06 AM CST (12/13) 5:41 PM CST (12/13)
Length of Visible Light 10h 57m
Length of Day
10h 03m
New Moon, 0% of the Moon is Illuminated
Dec 13
New Moon
Dec 19
First Quarter
Dec 28
Full
Jan 4
Last Quarter
Jan 11
New

Hourly Weather History & Observations

Time (CST) Temp. Windchill Dew Point Humidity Pressure Visibility Wind Dir Wind Speed Gust Speed Precip Events Conditions
12:53 AM 27.0 °F - 26.1 °F 96% 30.37 in 10.0 mi Calm Calm - N/A   Clear
1:53 AM 26.1 °F - 25.0 °F 96% 30.37 in 10.0 mi Calm Calm - N/A   Clear
2:53 AM 27.0 °F 23.0 °F 26.1 °F 96% 30.36 in 10.0 mi NNE 3.5 mph - N/A   Clear
3:53 AM 27.0 °F - 24.1 °F 89% 30.37 in 10.0 mi Calm Calm - N/A   Clear
4:53 AM 26.1 °F 21.9 °F 24.1 °F 92% 30.37 in 10.0 mi NNW 3.5 mph - N/A   Clear
5:53 AM 26.1 °F 20.5 °F 24.1 °F 92% 30.39 in 10.0 mi North 4.6 mph - N/A   Clear
6:53 AM 25.0 °F - 21.9 °F 88% 30.41 in 10.0 mi Calm Calm - N/A   Clear
7:53 AM 34.0 °F 31.0 °F 30.9 °F 89% 30.41 in 10.0 mi NE 3.5 mph - N/A   Clear
8:53 AM 41.0 °F - 33.1 °F 73% 30.41 in 10.0 mi Calm Calm - N/A   Clear
9:53 AM 46.9 °F - 32.0 °F 56% 30.42 in 10.0 mi Calm Calm - N/A   Clear
10:53 AM 51.1 °F - 28.9 °F 43% 30.40 in 10.0 mi Calm Calm - N/A   Clear
11:53 AM 55.0 °F - 28.0 °F 35% 30.37 in 10.0 mi Variable 4.6 mph - N/A   Clear
12:53 PM 59.0 °F - 26.1 °F 28% 30.33 in 10.0 mi Calm Calm - N/A   Clear
1:53 PM 61.0 °F - 28.9 °F 30% 30.31 in 10.0 mi Calm Calm - N/A   Clear
2:53 PM 62.1 °F - 28.0 °F 28% 30.30 in 10.0 mi Variable 3.5 mph - N/A   Clear
3:53 PM 61.0 °F - 25.0 °F 25% 30.30 in 10.0 mi West 3.5 mph - N/A   Clear
7:53 PM 37.9 °F - 34.0 °F 86% 30.32 in 10.0 mi Calm Calm - N/A   Clear
8:53 PM 34.0 °F - 32.0 °F 92% 30.33 in 10.0 mi Calm Calm - N/A   Clear
9:53 PM 37.9 °F 34.4 °F 33.1 °F 83% 30.32 in 10.0 mi East 4.6 mph - N/A   Clear
10:53 PM 32.0 °F - 30.0 °F 92% 30.32 in 10.0 mi Calm Calm - N/A   Clear
11:53 PM 28.9 °F 25.2 °F 28.9 °F 100% 30.31 in 10.0 mi NNW 3.5 mph - N/A   Clear